Satellite: UO-22
Catalog number: 21575
Epoch time:      04266.86350324
Element set:     210
Inclination:       98.2044 deg
RA of node:       236.8707 deg
Eccentricity:    0.0007815
Arg of perigee:   167.3206 deg
Mean anomaly:     192.8202 deg
Mean motion:   14.39414927 rev/day
Decay rate:        8.2e-07 rev/day^2
Epoch rev:           69204
Checksum:              292

Satellite: KO-23
Catalog number: 22077
Epoch time:      04266.94088064
Element set:    0317
Inclination:      066.0901 deg
RA of node:       346.1318 deg
Eccentricity:    0.0009233
Arg of perigee:   318.7638 deg
Mean anomaly:     041.2682 deg
Mean motion:   12.86425276 rev/day
Decay rate:       -3.7e-07 rev/day^2
Epoch rev:           56921
Checksum:              303

Satellite: AO-27
Catalog number: 22825
Epoch time:      04267.16302170
Element set:     945
Inclination:       98.2461 deg
RA of node:       270.9643 deg
Eccentricity:    0.0007822
Arg of perigee:   341.1456 deg
Mean anomaly:      18.9450 deg
Mean motion:   14.29085987 rev/day
Decay rate:       1.23e-06 rev/day^2
Epoch rev:           57308
Checksum:              308

Satellite: IO-26
Catalog number: 22826
Epoch time:      04267.58925073
Element set:     623
Inclination:       98.2423 deg
RA of node:       272.6510 deg
Eccentricity:    0.0009004
Arg of perigee:   337.9225 deg
Mean anomaly:      22.1569 deg
Mean motion:   14.29322725 rev/day
Decay rate:        5.1e-07 rev/day^2
Epoch rev:           57320
Checksum:              288

Satellite: KO-25
Catalog number: 22828
Epoch time:      04267.57538927
Element set:     883
Inclination:       98.2372 deg
RA of node:       272.8737 deg
Eccentricity:    0.0009317
Arg of perigee:   313.8432 deg
Mean anomaly:      46.1958 deg
Mean motion:   14.29642067 rev/day
Decay rate:       -2.8e-07 rev/day^2
Epoch rev:           54142
Checksum:              336

Satellite: TO-31
Catalog number: 25396
Epoch time:      04266.91821672
Element set:    0117
Inclination:      098.5667 deg
RA of node:       335.7189 deg
Eccentricity:    0.0001875
Arg of perigee:   216.4807 deg
Mean anomaly:     143.6245 deg
Mean motion:   14.23634396 rev/day
Decay rate:       -4.3e-07 rev/day^2
Epoch rev:           32238
Checksum:              321

Satellite: GO-32
Catalog number: 25397
Epoch time:      04266.82191419
Element set:     565
Inclination:       98.5566 deg
RA of node:       333.6329 deg
Eccentricity:    0.0000582
Arg of perigee:   193.4037 deg
Mean anomaly:     166.7126 deg
Mean motion:   14.23051530 rev/day
Decay rate:      -1.01e-06 rev/day^2
Epoch rev:           32230
Checksum:              286

Satellite: UO-36
Catalog number: 25693
Epoch time:      04267.76268045
Element set:     474
Inclination:       64.5598 deg
RA of node:        21.8542 deg
Eccentricity:    0.0046037
Arg of perigee:   246.2602 deg
Mean anomaly:     113.3674 deg
Mean motion:   14.78387005 rev/day
Decay rate:       1.86e-06 rev/day^2
Epoch rev:           29243
Checksum:              320

Satellite: AO-37
Catalog number: 26065
Epoch time:      03315.96377143
Element set:    0952
Inclination:      100.1923 deg
RA of node:       058.7024 deg
Eccentricity:    0.0036902
Arg of perigee:   257.3642 deg
Mean anomaly:     102.3411 deg
Mean motion:   14.35620788 rev/day
Decay rate:       1.45e-06 rev/day^2
Epoch rev:           19860
Checksum:              288

Satellite: SO-41
Catalog number: 26545
Epoch time:      04267.67797736
Element set:     884
Inclination:       64.5594 deg
RA of node:        38.3482 deg
Eccentricity:    0.0019793
Arg of perigee:   354.8262 deg
Mean anomaly:       5.2622 deg
Mean motion:   14.79861312 rev/day
Decay rate:       3.49e-06 rev/day^2
Epoch rev:           21548
Checksum:              343

Satellite: MO-46
Catalog number: 26548
Epoch time:      04267.27845402
Element set:     984
Inclination:       64.5583 deg
RA of node:        25.5191 deg
Eccentricity:    0.0020103
Arg of perigee:   336.3141 deg
Mean anomaly:      23.7044 deg
Mean motion:   14.82412324 rev/day
Decay rate:       3.60e-06 rev/day^2
Epoch rev:           21571
Checksum:              274

Satellite: SO-42
Catalog number: 26549
Epoch time:      04266.85825468
Element set:    0966
Inclination:      064.5503 deg
RA of node:       048.0454 deg
Eccentricity:    0.0019680
Arg of perigee:   009.8009 deg
Mean anomaly:     350.3471 deg
Mean motion:   14.78752870 rev/day
Decay rate:       2.42e-06 rev/day^2
Epoch rev:           21522
Checksum:              317

Satellite: NO-44
Catalog number: 26931
Epoch time:      04267.72427580
Element set:     859
Inclination:       67.0529 deg
RA of node:       194.0440 deg
Eccentricity:    0.0006725
Arg of perigee:   272.3618 deg
Mean anomaly:      87.6712 deg
Mean motion:   14.29324132 rev/day
Decay rate:       2.49e-06 rev/day^2
Epoch rev:           15568
Checksum:              317

Satellite: AO-49
Catalog number: 27605
Epoch time:      04267.20106708
Element set:     543
Inclination:       64.5579 deg
RA of node:       227.0166 deg
Eccentricity:    0.0082756
Arg of perigee:   292.1411 deg
Mean anomaly:      67.0905 deg
Mean motion:   14.71932357 rev/day
Decay rate:       1.77e-06 rev/day^2
Epoch rev:            9455
Checksum:              313

